When you browse on this site, cookies collect data to enhance your experience and personalize the content and advertising you see.
Visit our Privacy Policy to learn more. By continuing to use the site, you agree to this use of cookies and data.
  • In Portugal
  • List of Countries
  • For 7 days
  • Water Temperature
  • Satellite Maps
  • Weather Map
  • Weather Widgets
  • user-avatar
    Login

    Hourly Weather Kuznecovo

    Today, 24 April, Wednesday

    Time Temperature Precipitation Wind Pressure Humidity
    00:00 +10°C° 0 mm 1 mps 757 mmHg 66%
    01:00 +10°C° 0 mm 1 mps 757 mmHg 68%
    02:00 +9°C° 0 mm 1 mps 757 mmHg 70%
    03:00 +9°C° 0 mm 1 mps 757 mmHg 71%
    04:00 +9°C° 0 mm 1 mps 757 mmHg 71%
    05:00 +8°C° 0 mm 2 mps 757 mmHg 72%
    06:00 +10°C° 0 mm 2 mps 758 mmHg 65%
    07:00 +13°C° 0 mm 2 mps 758 mmHg 58%
    08:00 +15°C° 0 mm 2 mps 758 mmHg 52%
    09:00 +17°C° 0 mm 2 mps 758 mmHg 47%
    10:00 +19°C° 0 mm 3 mps 757 mmHg 42%
    11:00 +20°C° 0 mm 3 mps 757 mmHg 37%
    12:00 +21°C° 0 mm 3 mps 757 mmHg 36%
    13:00 +21°C° 0 mm 3 mps 757 mmHg 35%
    14:00 +22°C° 0 mm 3 mps 757 mmHg 33%
    15:00 +21°C° 0 mm 3 mps 757 mmHg 36%
    16:00 +21°C° 0 mm 2 mps 756 mmHg 40%
    17:00 +21°C° 0 mm 1 mps 756 mmHg 43%
    18:00 +19°C° 0 mm 1 mps 756 mmHg 48%
    19:00 +16°C° 0 mm 1 mps 756 mmHg 53%
    20:00 +14°C° 0 mm 1 mps 756 mmHg 59%
    21:00 +13°C° 0 mm 1 mps 756 mmHg 61%
    22:00 +13°C° 0 mm 1 mps 756 mmHg 64%
    23:00 +12°C° 0 mm 1 mps 757 mmHg 67%

    Tomorrow, 25 April, Thursday

    Time Temperature Precipitation Wind Pressure Humidity
    00:00 +11°C° 0 mm 1 mps 757 mmHg 68%
    01:00 +10°C° 0 mm 0 mps 757 mmHg 70%
    02:00 +9°C° 0 mm 0 mps 757 mmHg 72%
    03:00 +9°C° 0 mm 0 mps 757 mmHg 71%
    04:00 +9°C° 0 mm 0 mps 757 mmHg 71%
    05:00 +9°C° 0 mm 0 mps 757 mmHg 71%
    06:00 +11°C° 0 mm 0 mps 757 mmHg 64%
    07:00 +15°C° 0 mm 1 mps 757 mmHg 57%
    08:00 +18°C° 0 mm 1 mps 757 mmHg 50%
    09:00 +20°C° 0 mm 1 mps 757 mmHg 46%
    10:00 +21°C° 0 mm 1 mps 756 mmHg 41%
    11:00 +23°C° 0 mm 1 mps 756 mmHg 36%
    12:00 +23°C° 0 mm 1 mps 756 mmHg 34%
    13:00 +23°C° 0 mm 2 mps 756 mmHg 32%
    14:00 +24°C° 0 mm 2 mps 755 mmHg 31%
    15:00 +23°C° 0 mm 1 mps 755 mmHg 34%
    16:00 +22°C° 0 mm 1 mps 755 mmHg 38%
    17:00 +22°C° 0 mm 1 mps 755 mmHg 41%
    18:00 +20°C° 0 mm 1 mps 754 mmHg 45%
    19:00 +18°C° 0 mm 1 mps 754 mmHg 49%
    20:00 +16°C° 0 mm 1 mps 754 mmHg 54%
    21:00 +15°C° 0 mm 1 mps 754 mmHg 55%
    22:00 +15°C° 0 mm 1 mps 754 mmHg 56%
    23:00 +13°C° 0 mm 0 mps 754 mmHg 57%

    Day after tomorrow, 26 April, Friday

    Time Temperature Precipitation Wind Pressure Humidity
    00:00 +14°C° 0 mm 1 mps 754 mmHg 58%
    01:00 +14°C° 0 mm 1 mps 754 mmHg 59%
    02:00 +14°C° 0 mm 1 mps 754 mmHg 59%
    03:00 +13°C° 0 mm 1 mps 754 mmHg 63%
    04:00 +12°C° 0 mm 1 mps 754 mmHg 66%
    05:00 +12°C° 0 mm 1 mps 754 mmHg 69%
    06:00 +14°C° 0 mm 1 mps 754 mmHg 63%
    07:00 +16°C° 0 mm 1 mps 754 mmHg 58%
    08:00 +19°C° 0 mm 1 mps 754 mmHg 53%
    09:00 +20°C° 0 mm 1 mps 754 mmHg 48%
    10:00 +21°C° 0 mm 1 mps 753 mmHg 43%
    11:00 +21°C° 0 mm 2 mps 753 mmHg 38%
    12:00 +21°C° 0 mm 1 mps 753 mmHg 42%
    13:00 +20°C° 0 mm 1 mps 752 mmHg 47%
    14:00 +18°C° 0 mm 0 mps 752 mmHg 51%
    15:00 +19°C° 0.1 mm 1 mps 751 mmHg 55%
    16:00 +18°C° 0.1 mm 1 mps 751 mmHg 58%
    17:00 +17°C° 0.1 mm 2 mps 750 mmHg 62%
    18:00 +15°C° 0.5 mm 2 mps 750 mmHg 70%
    19:00 +14°C° 0.5 mm 2 mps 750 mmHg 77%
    20:00 +13°C° 0.5 mm 2 mps 750 mmHg 85%
    21:00 +12°C° 0.3 mm 2 mps 750 mmHg 86%
    22:00 +12°C° 0.3 mm 2 mps 749 mmHg 87%
    23:00 +12°C° 0.3 mm 2 mps 749 mmHg 88%

    27 April, Saturday

    Time Temperature Precipitation Wind Pressure Humidity
    00:00 +12°C° 0.1 mm 2 mps 749 mmHg 88%
    01:00 +12°C° 0.1 mm 1 mps 749 mmHg 88%
    02:00 +12°C° 0.1 mm 1 mps 748 mmHg 88%
    03:00 +11°C° 0 mm 1 mps 748 mmHg 89%
    04:00 +11°C° 0 mm 1 mps 748 mmHg 90%
    05:00 +11°C° 0 mm 1 mps 747 mmHg 91%
    06:00 +13°C° 0 mm 1 mps 747 mmHg 85%
    07:00 +14°C° 0 mm 1 mps 747 mmHg 79%
    08:00 +16°C° 0 mm 1 mps 746 mmHg 73%
    09:00 +19°C° 0.4 mm 1 mps 746 mmHg 66%
    10:00 +20°C° 0.4 mm 1 mps 746 mmHg 58%
    11:00 +22°C° 0.4 mm 1 mps 746 mmHg 51%
    12:00 +22°C° 0.3 mm 1 mps 745 mmHg 49%
    13:00 +22°C° 0.3 mm 1 mps 745 mmHg 46%
    14:00 +22°C° 0.3 mm 1 mps 744 mmHg 44%
    15:00 +21°C° 0 mm 1 mps 744 mmHg 48%
    16:00 +20°C° 0 mm 1 mps 744 mmHg 53%
    17:00 +19°C° 0 mm 1 mps 744 mmHg 57%
    18:00 +17°C° 0 mm 2 mps 744 mmHg 58%
    19:00 +15°C° 0 mm 2 mps 745 mmHg 59%
    20:00 +14°C° 0 mm 2 mps 745 mmHg 60%
    21:00 +12°C° 0 mm 3 mps 746 mmHg 63%
    22:00 +11°C° 0 mm 3 mps 746 mmHg 66%
    23:00 +10°C° 0 mm 3 mps 747 mmHg 69%

    28 April, Sunday

    Time Temperature Precipitation Wind Pressure Humidity
    00:00 +9°C° 0 mm 3 mps 747 mmHg 69%
    01:00 +8°C° 0 mm 3 mps 748 mmHg 69%
    02:00 +7°C° 0 mm 3 mps 749 mmHg 70%
    03:00 +5°C° 0 mm 4 mps 749 mmHg 69%
    04:00 +4°C° 0 mm 4 mps 750 mmHg 67%
    05:00 +1°C° 0 mm 4 mps 750 mmHg 66%
    06:00 +3°C° 0 mm 4 mps 751 mmHg 63%
    07:00 +4°C° 0 mm 4 mps 751 mmHg 60%
    08:00 +4°C° 0 mm 4 mps 752 mmHg 56%
    09:00 +5°C° 0 mm 4 mps 752 mmHg 53%
    10:00 +6°C° 0 mm 4 mps 752 mmHg 50%
    11:00 +7°C° 0 mm 4 mps 753 mmHg 46%
    12:00 +8°C° 0 mm 4 mps 753 mmHg 44%
    13:00 +9°C° 0 mm 3 mps 753 mmHg 42%
    14:00 +10°C° 0 mm 3 mps 753 mmHg 39%
    15:00 +9°C° 0 mm 3 mps 753 mmHg 39%
    16:00 +9°C° 0 mm 3 mps 753 mmHg 38%
    17:00 +9°C° 0 mm 3 mps 753 mmHg 38%
    18:00 +7°C° 0 mm 3 mps 754 mmHg 44%
    19:00 +5°C° 0 mm 2 mps 754 mmHg 50%
    20:00 +4°C° 0 mm 2 mps 755 mmHg 56%
    21:00 +3°C° 0 mm 2 mps 755 mmHg 59%
    22:00 +3°C° 0 mm 1 mps 756 mmHg 63%
    23:00 +2°C° 0 mm 1 mps 756 mmHg 66%

    29 April, Monday

    Time Temperature Precipitation Wind Pressure Humidity
    00:00 +2°C° 0 mm 1 mps 756 mmHg 68%
    01:00 +1°C° 0 mm 1 mps 756 mmHg 69%
    02:00 +1°C° 0 mm 1 mps 757 mmHg 71%
    03:00 +1°C° 0 mm 1 mps 757 mmHg 71%
    04:00 +1°C° 0 mm 1 mps 757 mmHg 71%
    05:00 +1°C° 0 mm 1 mps 757 mmHg 70%
    06:00 +3°C° 0 mm 1 mps 757 mmHg 62%
    07:00 +5°C° 0 mm 1 mps 757 mmHg 53%
    08:00 +7°C° 0 mm 1 mps 757 mmHg 45%
    09:00 +8°C° 0 mm 1 mps 757 mmHg 41%
    10:00 +9°C° 0 mm 1 mps 757 mmHg 37%
    11:00 +11°C° 0 mm 1 mps 757 mmHg 33%
    12:00 +11°C° 0 mm 1 mps 756 mmHg 31%
    13:00 +12°C° 0 mm 1 mps 755 mmHg 30%
    14:00 +13°C° 0 mm 1 mps 755 mmHg 29%
    15:00 +12°C° 0 mm 1 mps 754 mmHg 29%
    16:00 +12°C° 0 mm 1 mps 754 mmHg 30%
    17:00 +11°C° 0 mm 1 mps 754 mmHg 31%
    18:00 +9°C° 0 mm 1 mps 754 mmHg 37%
    19:00 +8°C° 0 mm 1 mps 754 mmHg 43%
    20:00 +6°C° 0 mm 1 mps 754 mmHg 49%
    21:00 +5°C° 0 mm 1 mps 754 mmHg 51%
    22:00 +5°C° 0 mm 1 mps 754 mmHg 54%
    23:00 +4°C° 0 mm 1 mps 754 mmHg 56%
    Show more